DELTA 1 DEB, 7124

Orbit data source: Space-Track

DELTA 1 DEB, 7124 is space debris in SSO originally from a launch on Tue, 06 Nov 1973 UTC launched from the Air Force Western Test Range (AFWTR). Debris objects in space refer to the collection of defunct objects orbiting the Earth. Examples of debris include non-operational satellites, rocket bodies, and fragments generated from explosions, collisions, or faulty payload assembly.

Loading next visibility...
Identifier
7124, 1973-086CN
Orbit
SSO
Country
Flag of USUS
Related business
Manufacturer
Unknown
Mission
Spacecraft
Bus & Motor
Unknown
Mass
Unknown
Launch date (UTC)
1973-11-06 (53 years ago)
Launch vehicle
Unknown
Launch site
Air Force Western Test Range (AFWTR)
Object type
Payload
Rocket body
Debris
Shape & HBR
Unknown shape, 0.1 m
Radar Cross Section
Medium (>0.1 m² and <1 m²)

Expand to show TLE details & history
Last TLE update: 3 days ago

TLE from 3 days ago
0 DELTA 1 DEB
1 07124U 73086CN  26171.05934483 -.00000044  00000-0  20007-4 0  9993
2 07124 102.4770 197.8426 0052566 257.9106 125.1857 12.30090749362148
Epoch: 2026-06-20T01:25Z
TLE epoch observation values (Epoch: 2026-06-20T01:25:27.393Z)
Latitude
23.01688°
Longitude
-97.16861°
Altitude
1,575.486 km
Speed
7.072 km/s
True Right ascension
12h 49m 53s
True Declination
22° 54' 22"
Sunlit
Object was in daylight at epoch
Visualization orbit readout
Latitude
Unknown
Longitude
Unknown
Altitude
Unknown
Speed
Unknown
Apparent Right ascension
Unknown
Apparent Declination
Unknown
Sunlit
N/A
Visualization observer readout
Local Sidereal Time
00:50:13
Azimuth
Unknown
Elevation
Unknown
Doppler factor
Unknown
Orbital elements
Apogee altitude
1,588.164 km
Perigee altitude
1,504.851 km
Semi-major axis
7,924.645 km
Eccentricity
0.00526
Inclination
102.477°
RAAN
197.8426°
Arg. of periapsis
257.9106°
True anomaly
125.67614°
Mean anomaly
125.1857°
Eccentric anomaly
125.43111°
Mean motion
3.07662 °/min
Orbital period
117.01 mins
BSTAR
0.000020007
Loading maneuver chart data...
Computing Atmospheric mass density...
Loading historical data...
Loading historical data...
Loading historical data...
Loading historical data...
Loading historical data...
Loading historical data...
Loading historical data...

Documentation

Showing up to 5 results
|